Temperature
9 10 11 12 13 14 14 14 14 14 12 13 13 14 15 15 15 15 15 16 15 15 14 14 15 16 16 16 16 16 16 17 17 16 16 16 16 17 17 17 17 17 16 16
9 10 12 13 13 12 13 13 13 12 12 13 13 13 15 14 14 14 14 14 13 13 13 13 14 15 15 16 16 16 16 16 16 16 16 16 16 16 16 17 17 16 16 16
10 11 12 12 12 12 12 13 13 12 11 11 12 14 14 13 12 11 11 11 11 11 12 12 12 13 14 15 15 16 16 16 16 16 16 15 15 14 14 15 16 16 16 16
9 10 11 11 12 12 12 12 12 12 12 13 12 15 14 13 13 12 12 11 11 10 11 11 11 12 13 14 14 15 15 15 15 15 15 15 14 14 14 15 15 16 16 15
7 9 11 11 11 12 11 11 11 11 12 12 12 13 15 13 13 13 12 11 10 10 10 10 11 12 12 13 13 14 14 14 15 15 15 14 14 13 13 14 14 14 14 15
7 7 9 9 9 10 9 10 10 10 11 11 11 13 15 14 13 12 12 11 10 10 10 10 11 11 12 12 12 13 13 13 14 14 14 14 14 14 13 13 13 13 13 14
6 6 7 7 7 7 9 10 10 10 10 12 10 11 14 13 12 12 12 11 11 10 10 10 10 10 11 11 12 12 12 13 13 13 13 13 13 13 13 13 13 13 12 12
7 7 6 7 8 8 9 10 11 12 12 12 9 11 13 12 11 10 10 10 10 10 10 9 9 9 10 10 10 11 11 11 12 12 12 12 13 13 13 13 12 12 12 12
9 7 7 7 8 9 9 10 10 11 10 11 12 12 12 11 11 11 11 11 11 10 9 9 8 8 8 9 9 9 10 10 10 11 11 11 12 12 12 12 12 12 12 12
9 7 7 8 9 8 9 9 8 9 10 13 13 13 13 12 12 12 12 11 11 10 9 8 7 7 7 7 8 8 8 9 9 9 10 10 10 11 11 11 11 11 11 11
9 8 7 8 8 9 8 8 9 10 10 11 13 14 14 13 13 12 12 11 10 9 8 7 6 6 6 6 7 7 7 8 8 8 8 9 9 10 10 10 11 11 10 11
9 9 7 7 7 8 9 9 9 10 8 9 11 13 12 12 12 11 11 10 9 7 6 6 5 5 5 6 6 6 7 7 7 7 7 8 8 8 9 9 10 10 10 10
9 8 7 7 7 7 8 8 8 8 8 8 11 13 11 11 11 11 10 10 8 7 5 5 4 4 4 5 5 5 6 6 6 6 6 7 7 7 8 8 8 9 9 9
9 9 8 9 9 8 7 7 7 7 8 9 10 12 12 12 12 12 11 9 8 6 4 3 3 3 3 3 4 4 5 5 5 5 6 6 6 6 7 7 7 8 7 8
9 7 6 7 7 7 7 7 7 7 8 9 11 10 11 12 12 11 10 8 7 5 3 2 2 2 2 2 3 3 3 4 4 4 5 5 5 5 6 6 6 6 6 7
9 7 6 6 6 6 6 7 7 7 8 9 9 9 11 11 10 10 9 7 6 4 3 2 1 1 1 1 1 2 2 2 3 3 3 3 4 4 4 5 5 5 5 5
8 6 6 7 7 7 7 8 8 7 8 9 9 10 11 11 11 10 8 7 5 3 2 1 1 1 1 0 0 1 1 1 2 2 2 2 3 3 3 3 3 3 3 3
8 7 6 6 7 6 10 9 8 8 9 9 9 10 11 10 9 8 7 6 4 3 2 1 1 1 0 0 0 0 0 1 1 1 1 1 1 2 2 1 1 1 1 1
9 8 7 7 7 8 9 8 8 8 8 9 9 10 10 9 8 8 6 5 4 3 2 2 1 1 1 1 1 0 0 0 0 0 0 1 0 0 0 1 0 -0 -0 -0
7 8 7 7 7 9 10 9 8 9 10 10 9 10 10 8 10 10 6 5 4 4 3 2 2 2 1 1 1 1 1 1 0 0 0 -0 -0 -0 -0 -0 -0 -1 -1 -1
6 6 6 7 7 9 10 8 8 9 11 10 9 9 9 9 9 7 6 5 5 4 3 3 3 2 2 2 1 1 1 1 0 0 0 0 -0 -0 -0 -0 -0 -1 -1 -1
7 7 7 7 7 8 9 8 9 10 9 9 8 8 8 7 7 6 6 6 5 5 4 4 3 3 2 2 2 2 2 1 1 0 0 0 0 -0 -0 -0 -0 -1 -1 -1
8 9 9 9 9 9 8 9 9 8 8 8 8 8 7 6 6 6 6 5 5 5 4 4 3 3 3 2 2 2 2 1 1 1 1 0 0 -0 -0 -0 -0 -1 -1 -1
8 8 8 8 9 9 8 8 8 8 8 8 8 8 8 7 6 6 6 6 5 5 4 4 4 3 3 3 2 2 2 1 1 1 1 0 0 -0 -0 -0 -1 -1 -1 -2
8 7 8 8 9 8 8 7 7 7 8 8 8 8 8 7 7 6 6 6 6 5 5 4 4 3 3 3 2 2 2 1 1 1 1 0 -0 -0 -1 -1 -1 -2 -2 -2
7 7 8 9 9 9 9 7 7 7 7 7 7 8 8 7 7 6 6 6 5 5 5 4 4 4 3 3 2 2 2 1 0 0 0 -0 -0 -1 -1 -2 -2 -2 -3 -3
Wind_Speed
14 12 16 20 17 7 14 13 11 9 5 6 9 11 12 12 13 14 14 13 12 11 9 8 8 9 9 9 10 11 12 13 13 12 13 13 14 14 13 14 18 19 18 19
12 15 16 15 12 8 13 12 10 6 4 3 5 11 12 10 10 9 9 8 7 6 5 4 5 5 6 7 8 10 11 12 13 12 13 13 14 13 14 12 14 18 19 19
11 11 15 16 15 11 10 10 9 6 5 3 4 6 3 2 2 2 2 1 1 3 4 5 5 5 4 4 6 6 8 10 11 12 11 11 11 12 12 13 14 16 19 19
5 9 17 18 16 13 8 5 6 5 4 3 1 3 4 4 7 7 6 6 6 6 6 7 8 8 7 6 5 5 6 7 8 8 10 14 14 15 17 15 14 16 17 17
5 8 16 17 13 10 6 7 5 3 2 2 3 5 4 6 7 7 6 7 7 7 7 8 9 9 8 8 7 6 6 5 5 6 8 11 14 14 13 14 16 15 14 16
6 4 3 5 5 7 10 7 6 3 1 4 5 6 5 6 6 5 5 5 6 7 7 8 9 9 9 9 8 8 8 7 5 5 6 9 12 14 15 15 14 14 12 12
5 5 4 4 7 5 5 6 4 4 4 5 4 5 4 5 2 2 1 2 4 6 7 9 10 10 10 11 10 10 10 9 8 7 7 7 10 12 14 14 14 14 12 11
6 4 2 2 4 7 7 6 4 4 5 4 4 5 3 2 2 3 3 3 4 6 7 8 9 9 10 11 11 11 11 11 10 9 9 8 9 8 9 12 13 13 12 12
6 5 3 4 3 6 7 5 1 1 1 2 4 3 2 3 5 5 3 1 4 6 7 8 9 9 10 10 11 11 11 11 11 11 11 10 9 9 10 11 11 11 11 10
5 7 4 4 5 5 1 5 4 3 3 4 4 5 8 11 10 5 0 5 7 8 8 9 8 9 9 10 10 10 10 10 11 11 10 9 10 10 10 9 10 10 10 9
4 6 5 4 4 6 5 4 3 3 2 3 4 4 6 11 7 2 4 7 8 8 8 8 8 9 9 9 9 10 10 10 10 11 11 10 10 9 9 8 8 8 7 7
3 5 5 2 1 1 3 5 6 4 4 3 2 3 4 5 3 4 7 8 7 7 7 7 8 8 9 10 10 10 10 11 11 11 11 10 10 9 8 7 7 6 5 4
5 6 6 3 3 4 4 5 5 2 3 4 3 3 3 3 4 5 7 8 7 7 7 7 8 8 9 10 10 11 11 11 11 11 10 9 9 8 7 6 4 2 1 2
4 3 2 3 3 7 6 9 9 6 4 5 6 3 3 4 6 8 9 8 7 6 6 7 8 8 9 9 10 11 11 11 11 11 10 9 9 8 7 5 4 3 3 4
3 3 2 2 2 4 5 9 13 12 9 7 5 5 8 8 9 9 8 8 6 6 6 7 8 8 9 10 10 11 11 11 11 10 10 10 9 8 8 7 7 7 8 8
3 4 3 1 2 3 6 10 13 14 13 13 12 11 11 9 6 7 8 6 5 5 5 6 7 8 9 10 10 10 10 10 10 9 10 10 10 10 10 10 10 10 11 11
5 5 3 2 2 3 8 12 16 10 11 11 13 10 8 8 9 9 7 5 3 3 4 5 6 7 8 8 8 9 9 9 9 9 10 10 10 10 10 10 11 12 11 12
7 5 2 1 2 6 1 2 8 14 14 13 12 12 11 11 11 7 4 2 0 1 2 4 5 6 6 6 7 7 7 8 8 9 9 9 9 10 10 11 11 11 10 11
5 5 3 2 3 6 5 4 6 8 7 13 16 15 13 9 7 4 3 2 2 3 2 3 3 4 4 5 6 6 7 8 8 9 9 9 9 10 10 11 11 10 10 11
3 3 4 4 4 4 1 3 5 5 4 5 10 11 8 4 4 1 7 6 5 4 3 3 3 3 4 5 5 6 8 8 9 8 8 9 9 10 10 10 10 10 10 10
6 5 7 7 6 6 3 4 7 5 4 4 5 6 6 5 4 3 8 7 6 5 4 4 3 3 3 3 5 7 7 7 7 7 8 9 9 9 9 10 9 9 10 10
11 8 8 7 8 7 5 8 7 1 2 1 3 4 5 6 3 5 7 8 8 7 5 5 4 3 2 3 5 6 6 5 6 7 8 9 9 8 8 9 9 8 9 9
10 9 6 8 6 1 5 5 1 1 3 3 3 4 4 5 6 7 8 9 8 8 7 6 5 5 3 3 4 6 5 5 7 8 8 8 8 8 7 8 8 7 6 5
7 7 6 6 7 6 6 5 3 3 4 4 5 5 5 6 6 8 9 9 9 9 8 7 7 6 5 5 5 6 6 6 7 8 8 7 7 7 7 6 5 5 4 4
6 9 8 8 5 4 5 5 2 2 4 4 4 5 6 6 7 9 9 10 10 9 8 8 8 7 7 7 6 6 6 7 8 8 7 6 6 6 6 6 5 5 5 4
7 8 8 7 6 5 4 3 1 3 4 5 5 5 5 6 7 8 9 10 10 10 9 9 8 8 8 8 7 6 6 7 8 7 6 5 5 4 5 5 6 7 6 7
Wind_Direction
173 180 186 186 191 205 178 182 183 184 156 203 229 246 253 257 257 259 262 266 270 274 284 290 288 280 269 260 253 248 244 238 233 229 224 222 223 225 225 224 224 221 218 215
166 194 185 175 172 164 172 179 174 153 151 220 249 262 262 263 259 265 270 274 283 294 305 318 314 300 282 274 268 261 252 247 239 233 232 230 230 230 229 226 226 224 220 216
170 170 166 170 173 162 173 181 171 153 146 146 284 257 185 109 120 102 84 69 37 8 8 15 18 13 353 328 305 285 273 265 254 247 242 238 236 235 231 230 228 225 222 219
116 150 169 176 182 178 168 157 149 150 188 181 290 251 140 112 114 96 86 78 63 50 42 37 32 29 22 6 344 320 301 284 271 257 245 238 233 232 232 231 231 229 223 220
116 156 172 179 181 180 133 114 118 130 171 225 211 238 159 146 133 101 84 72 57 44 36 31 25 18 15 9 0 347 333 316 297 269 250 247 244 244 245 240 239 236 229 222
73 56 109 140 106 122 123 105 87 94 204 234 205 219 186 162 145 125 102 68 42 29 24 21 15 8 5 1 355 348 340 334 324 299 269 251 250 249 248 246 243 241 235 224
74 51 54 99 105 103 150 157 160 186 206 219 151 224 220 149 156 174 148 35 15 9 8 5 1 357 354 349 345 337 331 325 323 314 295 276 264 258 254 251 247 244 240 229
121 105 56 99 143 159 175 200 212 205 194 168 177 225 156 156 239 235 238 274 334 354 358 354 350 346 342 338 336 332 326 318 315 311 304 293 280 268 261 257 253 249 245 239
129 109 81 70 98 151 163 190 343 74 93 232 200 218 243 172 167 178 192 307 350 351 350 346 345 343 339 336 335 331 325 319 317 313 308 300 292 280 272 269 264 258 252 247
116 120 123 129 116 51 98 141 149 189 213 218 191 199 174 170 169 173 262 348 345 346 347 347 345 344 342 341 339 339 335 327 323 320 313 305 300 293 285 277 267 262 259 251
112 120 132 155 188 173 148 157 180 178 245 242 192 152 147 159 163 191 331 337 337 341 343 345 347 348 349 350 350 348 346 339 333 327 319 310 304 300 293 284 277 271 263 250
103 117 127 129 30 286 219 195 185 201 201 220 257 141 130 180 209 272 313 330 338 343 345 349 353 355 357 357 355 352 348 343 337 330 322 316 313 308 301 295 290 279 263 243
132 127 126 149 185 186 204 192 192 144 140 188 219 152 129 194 256 295 317 331 340 345 352 355 359 3 1 357 355 353 350 346 341 336 332 331 329 323 317 314 313 306 262 175
120 133 195 188 160 170 190 193 187 177 192 205 231 237 215 252 300 325 337 339 341 350 356 358 359 3 1 358 357 354 353 350 346 347 350 352 349 345 348 358 16 48 87 106
136 128 117 98 111 163 201 198 197 207 215 222 237 251 269 291 309 319 327 331 334 348 356 2 2 1 359 1 1 359 355 354 354 1 8 9 8 14 28 40 52 62 75 84
139 128 134 152 171 217 243 227 214 220 228 239 258 275 272 285 297 308 322 324 327 346 358 4 5 2 2 3 2 1 359 359 6 17 22 23 28 37 45 53 63 70 75 81
160 145 160 181 182 265 255 229 212 209 212 219 233 244 272 292 307 318 319 313 322 354 4 7 8 5 4 6 5 4 3 9 21 29 33 35 42 49 53 60 67 72 76 81
162 147 146 168 207 240 219 131 203 217 225 220 236 254 272 289 306 304 289 270 109 55 29 23 16 12 11 13 14 16 21 27 34 38 40 42 49 57 61 66 68 70 74 79
172 164 169 206 256 273 269 199 180 192 230 223 232 253 270 292 294 252 172 152 125 109 78 53 34 23 24 25 26 34 38 39 43 44 45 49 57 64 67 68 68 70 76 76
157 181 201 209 249 249 151 138 173 181 187 181 210 241 266 273 269 196 154 154 141 128 115 94 75 56 45 39 46 56 52 49 47 49 54 58 65 71 72 73 72 71 75 76
172 187 209 219 243 267 234 147 156 194 165 160 213 244 256 243 267 118 149 154 148 141 135 125 112 89 63 63 77 73 65 55 52 60 66 67 69 73 77 78 78 82 84 83
189 193 201 205 223 243 158 159 189 156 61 274 260 256 256 250 215 167 169 164 160 156 155 153 143 126 106 105 106 94 80 78 78 76 73 71 72 77 84 89 89 91 95 95
205 205 201 210 223 359 171 195 208 353 280 276 266 260 254 246 218 194 184 176 172 170 167 167 162 147 134 130 132 117 112 111 104 93 86 84 84 83 88 94 98 97 97 100
209 204 214 235 243 243 241 243 254 270 271 276 271 268 251 244 227 199 187 181 178 177 175 173 171 165 151 143 136 128 129 127 117 107 101 97 94 90 86 82 82 87 89 96
194 180 206 233 243 239 234 209 215 284 289 289 281 260 250 244 226 204 192 186 182 179 177 179 181 172 160 153 144 141 142 139 127 118 112 106 98 97 89 79 70 73 65 60
192 190 196 215 204 201 184 147 279 292 300 305 295 272 248 234 227 205 197 188 182 179 177 181 183 175 166 161 154 153 154 152 141 132 129 122 117 111 109 109 98 77 82 89
Height
1478 1481 1480 1480 1483 1483 1486 1491 1494 1497 1503 1504 1502 1502 1501 1502 1502 1502 1501 1501 1501 1502 1502 1501 1500 1501 1501 1502 1503 1505 1506 1508 1509 1510 1510 1511 1512 1513 1514 1515 1516 1517 1519 1520
1478 1477 1477 1481 1486 1487 1488 1491 1494 1501 1504 1503 1502 1500 1497 1498 1498 1499 1498 1498 1498 1498 1498 1497 1496 1495 1496 1496 1497 1498 1500 1501 1502 1503 1504 1505 1506 1506 1507 1508 1509 1510 1511 1513
1470 1473 1478 1482 1486 1488 1490 1490 1493 1497 1503 1505 1503 1493 1494 1497 1498 1498 1498 1497 1497 1496 1495 1494 1493 1492 1491 1491 1492 1492 1493 1494 1495 1496 1497 1498 1498 1499 1500 1500 1501 1503 1504 1505
1475 1476 1478 1482 1485 1485 1491 1494 1496 1498 1497 1497 1501 1490 1490 1495 1496 1497 1498 1497 1496 1495 1494 1493 1492 1490 1489 1489 1488 1488 1488 1488 1489 1489 1490 1490 1491 1491 1492 1493 1494 1495 1496 1497
1477 1478 1478 1482 1485 1486 1493 1497 1498 1499 1498 1499 1500 1495 1486 1493 1494 1496 1497 1497 1496 1495 1494 1493 1491 1490 1489 1487 1486 1486 1485 1484 1484 1484 1484 1484 1485 1486 1487 1488 1488 1488 1489 1489
1481 1483 1484 1486 1491 1492 1497 1500 1503 1502 1500 1501 1497 1494 1485 1489 1492 1495 1497 1497 1496 1495 1494 1492 1491 1489 1488 1486 1485 1484 1483 1482 1481 1480 1479 1479 1479 1480 1480 1481 1481 1481 1481 1481
1485 1488 1490 1491 1495 1499 1498 1498 1501 1501 1502 1493 1502 1498 1485 1490 1493 1495 1496 1496 1496 1495 1493 1491 1489 1487 1485 1484 1482 1481 1479 1478 1477 1476 1475 1474 1474 1474 1474 1474 1474 1474 1474 1474
1480 1489 1493 1492 1492 1495 1496 1494 1491 1487 1486 1487 1503 1493 1486 1491 1494 1495 1496 1496 1495 1494 1492 1490 1488 1485 1483 1481 1479 1477 1475 1474 1472 1471 1470 1469 1468 1468 1467 1467 1467 1467 1467 1467
1475 1488 1494 1494 1494 1493 1495 1494 1495 1492 1495 1490 1484 1488 1488 1490 1492 1493 1494 1494 1493 1492 1490 1488 1485 1482 1480 1477 1474 1472 1470 1468 1467 1465 1464 1463 1462 1462 1461 1461 1461 1460 1461 1461
1475 1487 1493 1495 1495 1498 1495 1494 1499 1498 1491 1480 1478 1480 1477 1486 1487 1490 1491 1491 1490 1489 1487 1485 1482 1479 1476 1473 1470 1468 1465 1463 1461 1460 1458 1457 1456 1456 1455 1454 1454 1454 1454 1454
1476 1483 1494 1494 1493 1492 1497 1498 1495 1494 1493 1484 1474 1475 1475 1479 1484 1487 1488 1488 1487 1485 1483 1481 1478 1475 1472 1469 1466 1464 1461 1459 1457 1455 1453 1452 1451 1450 1449 1448 1448 1448 1448 1448
1478 1481 1491 1495 1497 1496 1494 1492 1493 1492 1497 1494 1484 1479 1480 1482 1484 1486 1485 1485 1484 1482 1480 1478 1475 1472 1469 1466 1463 1460 1457 1455 1453 1450 1448 1447 1446 1444 1444 1443 1442 1442 1442 1442
1477 1482 1490 1494 1498 1498 1495 1495 1495 1496 1495 1494 1484 1478 1481 1482 1483 1483 1482 1481 1480 1479 1477 1475 1472 1469 1466 1463 1460 1457 1454 1452 1449 1447 1444 1443 1441 1440 1439 1438 1437 1437 1437 1437
1478 1479 1481 1479 1479 1486 1490 1492 1494 1495 1493 1488 1483 1478 1478 1478 1479 1479 1479 1478 1477 1476 1474 1472 1469 1466 1463 1460 1457 1454 1452 1449 1446 1443 1441 1439 1438 1436 1435 1434 1434 1433 1434 1434
1477 1482 1487 1485 1486 1487 1487 1488 1491 1492 1487 1484 1479 1481 1476 1475 1476 1477 1476 1476 1475 1474 1472 1470 1467 1464 1461 1458 1455 1452 1449 1447 1444 1441 1439 1437 1435 1434 1433 1432 1431 1432 1432 1432
1478 1484 1487 1489 1488 1488 1487 1484 1485 1487 1485 1483 1482 1480 1473 1474 1475 1474 1474 1474 1473 1472 1470 1467 1465 1463 1460 1457 1454 1451 1448 1446 1443 1441 1438 1436 1434 1433 1432 1431 1431 1431 1431 1431
1477 1483 1486 1482 1486 1485 1479 1473 1477 1478 1478 1479 1479 1475 1471 1472 1472 1472 1472 1471 1471 1470 1468 1466 1464 1462 1459 1456 1454 1451 1448 1446 1443 1441 1438 1436 1435 1433 1432 1432 1432 1432 1432 1432
1477 1481 1484 1485 1485 1484 1467 1468 1469 1471 1472 1474 1473 1471 1470 1471 1470 1470 1469 1469 1469 1468 1466 1465 1463 1461 1459 1457 1454 1452 1449 1447 1445 1442 1440 1438 1437 1435 1435 1434 1434 1434 1435 1435
1476 1478 1480 1481 1477 1469 1465 1467 1469 1470 1468 1467 1470 1469 1468 1469 1468 1467 1467 1467 1467 1466 1465 1464 1463 1461 1460 1458 1456 1454 1452 1450 1447 1445 1443 1441 1440 1439 1438 1438 1438 1438 1439 1439
1477 1477 1478 1478 1477 1466 1461 1464 1466 1468 1463 1463 1465 1466 1466 1468 1465 1463 1465 1465 1465 1465 1464 1464 1463 1462 1461 1460 1458 1457 1455 1453 1450 1448 1447 1445 1444 1443 1443 1443 1443 1443 1444 1444
1477 1478 1477 1475 1473 1462 1461 1463 1466 1466 1460 1462 1463 1464 1464 1464 1463 1464 1463 1463 1464 1464 1464 1464 1464 1463 1462 1462 1461 1460 1458 1456 1455 1453 1452 1451 1450 1449 1448 1448 1448 1449 1449 1449
1467 1468 1469 1469 1470 1463 1459 1462 1462 1459 1460 1461 1461 1461 1461 1461 1460 1461 1461 1462 1462 1463 1464 1464 1464 1464 1464 1463 1463 1462 1460 1460 1459 1458 1456 1455 1455 1454 1454 1453 1453 1453 1454 1453
1459 1459 1458 1459 1458 1456 1458 1458 1459 1459 1459 1459 1459 1459 1458 1458 1457 1458 1458 1459 1461 1462 1463 1463 1464 1465 1465 1464 1464 1464 1463 1462 1461 1461 1460 1459 1458 1458 1458 1457 1457 1457 1457 1456
1456 1458 1458 1456 1454 1455 1456 1457 1457 1457 1457 1456 1456 1456 1455 1455 1454 1454 1455 1457 1458 1460 1461 1462 1463 1464 1465 1465 1465 1464 1464 1463 1463 1463 1462 1462 1461 1461 1460 1460 1460 1459 1459 1458
1449 1453 1453 1452 1452 1453 1453 1453 1454 1455 1454 1454 1453 1452 1452 1451 1451 1451 1452 1453 1455 1457 1459 1461 1462 1463 1464 1464 1464 1464 1464 1464 1464 1464 1464 1464 1463 1463 1462 1462 1461 1460 1460 1459
1446 1447 1447 1445 1447 1448 1450 1451 1452 1451 1451 1451 1450 1449 1448 1448 1447 1447 1448 1450 1452 1454 1456 1458 1460 1461 1462 1463 1463 1464 1464 1464 1465 1465 1464 1464 1464 1464 1463 1463 1462 1460 1460 1458